Home > Weather > Hamar > Past weeks

Flag for Norway Past Weather in Hamar, Norway — Yesterday and Last 2 Weeks

Now
55 °F

Cool.


Feels Like: 55 °F
Forecast: 52 / 65 °F
Wind: 3 mph from Southeast

Location: Haugedalshogda

Current Time: Jun 27, 2016 at 2:25:54 AM

Latest Report: Jun 27, 2016 at 2:00 AM


Visibility: N/A

Pressure: 29.77 "Hg

Humidity: 97%

Dew Point: 54 °F

Location of HamarLocation

Past Weather in Hamar — Graph

°F

Hamar Temperature Yesterday

Maximum temperature yesterday: 76 °F (at 11:00 AM)
Minimum temperature yesterday: 46 °F (at 3:00 AM)
Average temperature yesterday: 62 °F

High & Low Weather Summary for the Past Weeks

 TemperatureHumidityPressure
High78 °F (Jun 25, 4:00 PM)100% (Jun 21, 5:00 AM)30.16 "Hg (Jun 21, 5:00 AM)
Low33 °F (Jun 15, 4:00 AM)25% (Jun 14, 6:00 PM)29.57 "Hg (Jun 16, 8:00 PM)
Average58 °F69%29.85 "Hg
* Reported Jun 12 2:00 AM — Jun 27 1:00 AM, Hamar, Weather by CustomWeather, © 2016

Note: Actual official high and low records may vary slightly from our data, if they occured in-between our weather recording intervals... More about our weather records

Advertising

Hamar Weather History for the Previous 24 Hours

Scroll right to see more
 ConditionsComfort  
Time TempWeatherWind HumidityBarometerVisibility
1:00 AM
Mon, Jun 27
56 °FCool.3 mph97%29.78 "HgN/A
12:00 AM57 °FCool.5 mph99%29.78 "HgN/A
11:00 PM
Sun, Jun 26
58 °FCool.1 mph99%29.76 "HgN/A
10:00 PM58 °FCool.1 mph98%29.77 "HgN/A
9:00 PM59 °FCool.No wind95%29.78 "HgN/A
8:00 PM60 °FCool.2 mph87%29.79 "HgN/A
7:00 PM67 °FMild.7 mph58%29.77 "HgN/A
6:00 PM70 °FMild.6 mph62%29.76 "HgN/A
5:00 PM71 °FMild.9 mph59%29.77 "HgN/A
4:00 PM70 °FMild.2 mph68%29.78 "HgN/A
3:00 PM71 °FMild.5 mph64%29.80 "HgN/A
2:00 PM73 °FMild.6 mph54%29.80 "HgN/A
1:00 PM72 °FMild.2 mph51%29.82 "HgN/A
12:00 PM74 °FMild.6 mph48%29.83 "HgN/A
11:00 AM76 °FMild.5 mph44%29.84 "HgN/A
10:00 AM73 °FMild.2 mph53%29.87 "HgN/A
9:00 AM70 °FMild.5 mph59%29.89 "HgN/A
8:00 AM65 °FMild.5 mph67%29.91 "HgN/A
7:00 AM63 °FMild.1 mph74%29.93 "HgN/A
6:00 AM56 °FCool.1 mph89%29.96 "HgN/A
5:00 AM47 °FCool.1 mphN/A29.98 "HgN/A
4:00 AM47 °FCool.1 mphN/A29.99 "HgN/A
3:00 AM46 °FCool.1 mph98%30.00 "HgN/A
2:00 AM50 °FCool.1 mph97%29.99 "HgN/A
Weather by CustomWeather, © 2016

See weather overviewHow to use our weather pages